Location: Caltech
(34.1382°N, 118.1253°W)
Time: 00:48:39
(UTC-07:00)

Saudisat 1A - Visible Passes

Search period start: 01 August 2015 00:00
Search period end: 11 August 2015 00:00
Orbit: 574 x 623 km, 64.6° (Epoch: 31 July)

Date Brightness Start Highest point End Pass type
(mag) Time Alt. Az. Time Alt. Az. Time Alt. Az.
01 Aug 10.9 02:06:16 12° ENE 02:06:16 12° ENE 02:06:44 10° NE visible
01 Aug 9.5 03:42:59 26° NW 03:42:59 26° NW 03:46:14 10° N visible
02 Aug 10.6 02:16:53 18° NE 02:16:53 18° NE 02:18:05 10° NE visible
02 Aug 10.2 03:53:36 15° NW 03:53:40 15° NW 03:56:10 10° NNW visible
03 Aug 10.4 02:27:27 21° NNE 02:27:27 21° NNE 02:29:01 10° NNE visible
04 Aug 10.3 02:37:59 21° N 02:37:59 21° N 02:39:39 10° NNE visible
05 Aug 10.5 02:48:29 16° NNW 02:48:29 16° NNW 02:49:57 10° N visible
06 Aug 10.8 02:58:56 11° NNW 02:58:56 11° NNW 02:59:35 10° NNW visible
07 Aug 11.2 01:32:40 11° NNE 01:32:40 11° NNE 01:32:55 10° NNE visible
08 Aug 11.1 01:43:03 12° N 01:43:03 12° N 01:43:27 10° N visible
09 Aug 11.2 01:53:24 11° N 01:53:24 11° N 01:53:35 10° N visible
